Time,TemperatureF,DewpointF,PressureIn,WindDirection,WindDirectionDegrees,WindSpeedMPH,WindSpeedGustMPH,Humidity,HourlyPrecipIn,Conditions,Clouds,dailyrainin,SoftwareType,DateUTC
2013-06-11 01:32:00,55.2,55.2,29.99,ESE,109,3.9,9.2,100,0.11,n/a,n/a,-99.99,Henriksen +1-Wire,2013-06-11 05:32:00,
2013-06-11 01:33:00,55.2,55.2,29.99,East,95,4.6,9.2,100,0.11,n/a,n/a,-99.99,Henriksen +1-Wire,2013-06-11 05:33:00,
2013-06-11 01:39:00,55.2,55.2,29.99,ESE,110,3.3,9.2,100,0.10,n/a,n/a,-99.99,Henriksen +1-Wire,2013-06-11 05:39:00,
2013-06-11 01:40:00,55.2,55.2,29.99,ESE,121,3.7,9.2,100,0.10,n/a,n/a,-99.99,Henriksen +1-Wire,2013-06-11 05:40:00,
2013-06-11 01:42:00,55.2,55.2,29.99,ESE,102,5.0,8.7,100,0.10,n/a,n/a,-99.99,Henriksen +1-Wire,2013-06-11 05:42:00,
2013-06-11 01:47:00,55.1,55.1,29.98,ESE,116,6.0,13.4,100,0.08,n/a,n/a,-99.99,Henriksen +1-Wire,2013-06-11 05:47:00,
2013-06-11 01:52:00,54.9,54.9,29.98,ESE,114,4.3,13.4,100,0.05,n/a,n/a,-99.99,Henriksen +1-Wire,2013-06-11 05:52:00,
2013-06-11 01:57:00,54.7,54.7,29.98,ESE,116,5.8,14.9,100,0.04,n/a,n/a,-99.99,Henriksen +1-Wire,2013-06-11 05:57:00,
2013-06-11 02:02:00,54.5,54.5,29.97,SE,135,4.4,14.9,100,0.03,n/a,n/a,-99.99,Henriksen +1-Wire,2013-06-11 06:02:00,
2013-06-11 02:07:00,54.4,54.4,29.97,ESE,116,4.7,14.8,100,0.03,n/a,n/a,-99.99,Henriksen +1-Wire,2013-06-11 06:07:00,
2013-06-11 02:12:00,54.2,54.2,29.96,ESE,112,5.3,14.8,100,0.02,n/a,n/a,-99.99,Henriksen +1-Wire,2013-06-11 06:12:00,
2013-06-11 02:17:00,54.1,54.1,29.96,ESE,113,5.2,12.2,100,0.01,n/a,n/a,-99.99,Henriksen +1-Wire,2013-06-11 06:17:00,
2013-06-11 04:22:00,53.6,53.6,29.90,ESE,109,6.3,17.0,100,0.11,n/a,n/a,-99.99,Henriksen +1-Wire,2013-06-11 08:22:00,
2013-06-11 06:27:00,53.7,53.7,29.84,East,96,5.5,9.5,100,0.11,n/a,n/a,-99.99,Henriksen +1-Wire,2013-06-11 10:27:00,
2013-06-11 06:32:00,53.7,53.7,29.83,East,91,4.6,12.5,100,0.12,n/a,n/a,-99.99,Henriksen +1-Wire,2013-06-11 10:32:00,
2013-06-11 06:39:00,53.8,53.8,29.83,East,86,4.8,12.5,100,0.11,n/a,n/a,-99.99,Henriksen +1-Wire,2013-06-11 10:39:00,
2013-06-11 06:44:00,53.8,53.8,29.83,ESE,102,4.1,12.1,100,0.11,n/a,n/a,-99.99,Henriksen +1-Wire,2013-06-11 10:44:00,
2013-06-11 06:49:00,53.8,53.8,29.83,East,100,5.4,14.3,100,0.09,n/a,n/a,-99.99,Henriksen +1-Wire,2013-06-11 10:49:00,
2013-06-11 06:54:00,53.9,53.9,29.82,ESE,104,5.6,14.3,100,0.07,n/a,n/a,-99.99,Henriksen +1-Wire,2013-06-11 10:54:00,
2013-06-11 07:00:00,53.9,53.9,29.82,ESE,102,4.3,14.0,100,0.06,n/a,n/a,-99.99,Henriksen +1-Wire,2013-06-11 11:00:00,
2013-06-11 07:06:00,53.9,53.9,29.81,East,97,4.7,15.5,100,0.06,n/a,n/a,-99.99,Henriksen +1-Wire,2013-06-11 11:06:00,
2013-06-11 07:11:00,53.9,53.9,29.81,East,94,5.7,15.5,100,0.07,n/a,n/a,-99.99,Henriksen +1-Wire,2013-06-11 11:11:00,
2013-06-11 07:16:00,54.0,54.0,29.81,ESE,105,4.4,12.5,100,0.07,n/a,n/a,-99.99,Henriksen +1-Wire,2013-06-11 11:16:00,
2013-06-11 07:22:00,54.0,54.0,29.81,East,89,4.5,9.7,100,0.07,n/a,n/a,-99.99,Henriksen +1-Wire,2013-06-11 11:22:00,
2013-06-11 07:27:00,54.0,54.0,29.81,East,91,3.9,10.3,100,0.08,n/a,n/a,-99.99,Henriksen +1-Wire,2013-06-11 11:27:00,
2013-06-11 07:32:00,54.0,54.0,29.81,East,91,5.2,14.8,100,0.08,n/a,n/a,-99.99,Henriksen +1-Wire,2013-06-11 11:32:00,
2013-06-11 07:37:00,54.0,54.0,29.80,East,94,3.4,14.8,100,0.10,n/a,n/a,-99.99,Henriksen +1-Wire,2013-06-11 11:37:00,
2013-06-11 07:42:00,54.0,54.0,29.80,East,93,6.3,16.5,100,0.12,n/a,n/a,-99.99,Henriksen +1-Wire,2013-06-11 11:42:00,
2013-06-11 07:47:00,54.0,54.0,29.79,East,98,4.2,16.5,100,0.12,n/a,n/a,-99.99,Henriksen +1-Wire,2013-06-11 11:47:00,
2013-06-11 07:52:00,54.0,54.0,29.79,East,93,3.5,9.5,100,0.13,n/a,n/a,-99.99,Henriksen +1-Wire,2013-06-11 11:52:00,
2013-06-11 07:57:00,54.0,54.0,29.79,East,91,4.0,9.5,100,0.14,n/a,n/a,-99.99,Henriksen +1-Wire,2013-06-11 11:57:00,
2013-06-11 08:02:00,54.0,54.0,29.79,East,98,6.0,13.4,100,0.16,n/a,n/a,-99.99,Henriksen +1-Wire,2013-06-11 12:02:00,
2013-06-11 08:09:00,54.0,54.0,29.78,East,93,3.9,13.4,100,0.17,n/a,n/a,-99.99,Henriksen +1-Wire,2013-06-11 12:09:00,
2013-06-11 08:14:00,53.9,53.9,29.78,ENE,76,3.9,9.5,100,0.16,n/a,n/a,-99.99,Henriksen +1-Wire,2013-06-11 12:14:00,
2013-06-11 10:17:00,54.5,54.5,29.71,ENE,77,5.4,11.0,100,0.02,n/a,n/a,-99.99,Henriksen +1-Wire,2013-06-11 14:17:00,
2013-06-11 10:22:00,54.6,54.6,29.70,ENE,77,4.5,10.2,100,0.02,n/a,n/a,-99.99,Henriksen +1-Wire,2013-06-11 14:22:00,
2013-06-11 10:27:00,54.6,54.6,29.70,ENE,62,4.6,12.6,100,0.02,n/a,n/a,-99.99,Henriksen +1-Wire,2013-06-11 14:27:00,
2013-06-11 10:32:00,54.7,54.7,29.70,ENE,59,4.7,12.6,100,0.02,n/a,n/a,-99.99,Henriksen +1-Wire,2013-06-11 14:32:00,
2013-06-11 10:37:00,54.7,54.7,29.69,ENE,61,4.9,9.5,100,0.02,n/a,n/a,-99.99,Henriksen +1-Wire,2013-06-11 14:37:00,
2013-06-11 10:42:00,54.7,54.7,29.69,ENE,63,4.0,10.8,100,0.01,n/a,n/a,-99.99,Henriksen +1-Wire,2013-06-11 14:42:00,
2013-06-11 10:47:00,54.7,54.7,29.69,ENE,60,4.8,10.8,100,0.01,n/a,n/a,-99.99,Henriksen +1-Wire,2013-06-11 14:47:00,
2013-06-11 12:52:00,55.4,55.4,29.68,North,6,2.1,7.2,100,0.00,n/a,n/a,-99.99,Henriksen +1-Wire,2013-06-11 16:52:00,
2013-06-11 12:57:00,55.4,55.4,29.68,NNE,27,2.4,5.6,100,0.00,n/a,n/a,-99.99,Henriksen +1-Wire,2013-06-11 16:57:00,
2013-06-11 13:02:00,55.4,55.4,29.68,ENE,60,3.1,5.6,100,0.00,n/a,n/a,-99.99,Henriksen +1-Wire,2013-06-11 17:02:00,
2013-06-11 13:07:00,55.4,55.4,29.68,NE,52,3.2,5.6,100,0.00,n/a,n/a,-99.99,Henriksen +1-Wire,2013-06-11 17:07:00,
2013-06-11 13:12:00,55.4,55.4,29.67,NE,41,4.4,8.6,100,0.00,n/a,n/a,-99.99,Henriksen +1-Wire,2013-06-11 17:12:00,
2013-06-11 13:17:00,55.3,55.3,29.67,NE,45,2.4,8.6,100,0.00,n/a,n/a,-99.99,Henriksen +1-Wire,2013-06-11 17:17:00,
2013-06-11 13:22:00,55.3,55.3,29.67,NE,50,2.5,6.4,100,0.00,n/a,n/a,-99.99,Henriksen +1-Wire,2013-06-11 17:22:00,
2013-06-11 15:27:00,56.7,56.2,29.65,NE,45,1.3,4.2,98,0.00,n/a,n/a,-99.99,Henriksen +1-Wire,2013-06-11 19:27:00,
2013-06-11 15:32:00,56.7,56.1,29.65,NE,34,2.6,5.1,97,0.00,n/a,n/a,-99.99,Henriksen +1-Wire,2013-06-11 19:32:00,
2013-06-11 15:38:00,56.7,56.1,29.65,NE,43,2.1,7.1,97,0.00,n/a,n/a,-99.99,Henriksen +1-Wire,2013-06-11 19:38:00,
2013-06-11 15:44:00,56.7,56.1,29.65,North,4,1.1,7.1,97,0.00,n/a,n/a,-99.99,Henriksen +1-Wire,2013-06-11 19:44:00,
2013-06-11 15:49:00,56.7,56.2,29.65,North,352,0.6,4.0,98,0.00,n/a,n/a,-99.99,Henriksen +1-Wire,2013-06-11 19:49:00,
2013-06-11 15:54:00,56.7,56.1,29.65,NNE,25,1.9,3.2,97,0.00,n/a,n/a,-99.99,Henriksen +1-Wire,2013-06-11 19:54:00,
2013-06-11 15:59:00,56.6,56.0,29.65,North,360,1.4,4.7,97,0.00,n/a,n/a,-99.99,Henriksen +1-Wire,2013-06-11 19:59:00,
2013-06-11 16:04:00,56.7,56.0,29.65,NNE,26,1.9,4.7,97,0.00,n/a,n/a,-99.99,Henriksen +1-Wire,2013-06-11 20:04:00,
2013-06-11 16:09:00,56.7,55.9,29.65,ESE,121,0.4,4.6,96,0.00,n/a,n/a,-99.99,Henriksen +1-Wire,2013-06-11 20:09:00,
2013-06-11 16:14:00,56.7,55.8,29.65,East,86,1.6,3.2,96,0.00,n/a,n/a,-99.99,Henriksen +1-Wire,2013-06-11 20:14:00,
2013-06-11 18:18:00,56.7,56.0,29.60,SE,138,2.1,3.9,97,0.00,n/a,n/a,-99.99,Henriksen +1-Wire,2013-06-11 22:18:00,
2013-06-11 18:24:00,56.7,56.0,29.61,South,176,0.8,3.9,97,0.00,n/a,n/a,-99.99,Henriksen +1-Wire,2013-06-11 22:24:00,
2013-06-11 18:29:00,56.7,55.9,29.61,South,173,2.1,4.0,97,0.00,n/a,n/a,-99.99,Henriksen +1-Wire,2013-06-11 22:29:00,
2013-06-11 20:32:00,54.1,54.1,29.58,South,174,1.1,2.3,100,0.30,n/a,n/a,-99.99,Henriksen +1-Wire,2013-06-12 00:32:00,
2013-06-11 20:37:00,54.1,54.1,29.59,South,172,0.9,2.3,100,0.22,n/a,n/a,-99.99,Henriksen +1-Wire,2013-06-12 00:37:00,
2013-06-11 20:42:00,54.1,54.1,29.59,SE,146,0.0,1.7,100,0.17,n/a,n/a,-99.99,Henriksen +1-Wire,2013-06-12 00:42:00,
2013-06-11 22:47:00,54.7,54.7,29.58,West,273,0.0,1.6,100,0.00,n/a,n/a,-99.99,Henriksen +1-Wire,2013-06-12 02:47:00,
2013-06-11 22:52:00,54.8,54.8,29.58,NNE,15,0.0,0.8,100,0.01,n/a,n/a,-99.99,Henriksen +1-Wire,2013-06-12 02:52:00,
2013-06-11 22:57:00,54.8,54.8,29.57,NW,320,0.1,0.8,100,0.01,n/a,n/a,-99.99,Henriksen +1-Wire,2013-06-12 02:57:00,
2013-06-11 23:02:00,54.8,54.8,29.57,SW,235,0.0,0.8,100,0.01,n/a,n/a,-99.99,Henriksen +1-Wire,2013-06-12 03:02:00,
2013-06-11 23:07:00,54.8,54.8,29.57,SW,226,0.0,0.0,100,0.01,n/a,n/a,-99.99,Henriksen +1-Wire,2013-06-12 03:07:00,
2013-06-11 23:12:00,54.7,54.7,29.57,South,189,0.0,0.0,100,0.01,n/a,n/a,-99.99,Henriksen +1-Wire,2013-06-12 03:12:00,
2013-06-11 23:17:00,54.7,54.7,29.57,SSW,193,0.0,0.0,100,0.01,n/a,n/a,-99.99,Henriksen +1-Wire,2013-06-12 03:17:00,
2013-06-11 23:22:00,54.7,54.7,29.57,SW,214,0.0,0.0,100,0.01,n/a,n/a,-99.99,Henriksen +1-Wire,2013-06-12 03:22:00,
2013-06-11 23:27:00,54.7,54.7,29.57,SW,218,0.0,0.0,100,0.01,n/a,n/a,-99.99,Henriksen +1-Wire,2013-06-12 03:27:00,
2013-06-11 23:32:00,54.7,54.7,29.57,SSW,208,0.0,0.0,100,0.01,n/a,n/a,-99.99,Henriksen +1-Wire,2013-06-12 03:32:00,
2013-06-11 23:37:00,54.7,54.7,29.57,SSW,209,0.0,0.0,100,0.01,n/a,n/a,-99.99,Henriksen +1-Wire,2013-06-12 03:37:00,
2013-06-11 23:42:00,54.7,54.7,29.57,East,82,0.0,0.0,100,0.01,n/a,n/a,-99.99,Henriksen +1-Wire,2013-06-12 03:42:00,
2013-06-11 23:47:00,54.7,54.7,29.57,NE,54,0.5,2.4,100,0.01,n/a,n/a,-99.99,Henriksen +1-Wire,2013-06-12 03:47:00,
2013-06-11 23:52:00,54.7,54.7,29.57,North,0,0.5,2.4,100,0.00,n/a,n/a,-99.99,Henriksen +1-Wire,2013-06-12 03:52:00,